TimeEST,TemperatureF,Dew PointF,Humidity,Sea Level PressureIn,VisibilityMPH,Wind Direction,Wind SpeedMPH,Gust SpeedMPH,PrecipitationIn,Events,Conditions,WindDirDegrees,DateUTC
12:51 AM,30.9,19.9,64,30.13,10.0,WNW,10.4,17.3,N/A,,Overcast,300,2013-11-09 05:51:00
1:51 AM,30.9,19.0,61,30.14,10.0,WNW,3.5,-,N/A,,Overcast,300,2013-11-09 06:51:00
2:51 AM,32.0,19.9,61,30.16,10.0,NW,6.9,-,N/A,,Overcast,310,2013-11-09 07:51:00
3:51 AM,30.9,19.9,64,30.17,10.0,WNW,10.4,18.4,N/A,,Overcast,300,2013-11-09 08:51:00
4:51 AM,30.9,21.0,67,30.19,10.0,NW,15.0,20.7,N/A,,Overcast,310,2013-11-09 09:51:00
5:51 AM,30.9,21.0,67,30.19,10.0,NW,9.2,19.6,N/A,,Overcast,320,2013-11-09 10:51:00
6:51 AM,30.9,21.0,67,30.20,10.0,NW,9.2,18.4,N/A,,Overcast,310,2013-11-09 11:51:00
7:51 AM,30.9,19.9,64,30.22,10.0,WNW,8.1,-,N/A,,Partly Cloudy,300,2013-11-09 12:51:00
8:51 AM,32.0,19.9,61,30.22,10.0,NW,10.4,18.4,N/A,,Overcast,320,2013-11-09 13:51:00
9:51 AM,35.1,21.0,57,30.21,10.0,NW,11.5,20.7,0.01,,Mostly Cloudy,320,2013-11-09 14:51:00
10:51 AM,34.0,21.0,59,30.20,10.0,NW,8.1,-,N/A,,Partly Cloudy,310,2013-11-09 15:51:00
11:51 AM,35.1,19.9,54,30.18,10.0,NW,8.1,16.1,N/A,,Partly Cloudy,320,2013-11-09 16:51:00
12:51 PM,36.0,21.0,55,30.16,10.0,North,5.8,-,N/A,,Mostly Cloudy,350,2013-11-09 17:51:00
1:51 PM,37.0,19.9,50,30.13,10.0,Calm,Calm,-,N/A,,Partly Cloudy,0,2013-11-09 18:51:00
2:51 PM,37.0,19.0,48,30.11,10.0,Calm,Calm,-,N/A,,Partly Cloudy,0,2013-11-09 19:51:00
3:51 PM,36.0,19.0,50,30.10,10.0,Calm,Calm,-,N/A,,Mostly Cloudy,0,2013-11-09 20:51:00
4:51 PM,32.0,24.1,73,30.10,10.0,South,3.5,-,N/A,,Overcast,190,2013-11-09 21:51:00
5:51 PM,35.1,21.9,59,30.10,10.0,South,4.6,-,N/A,,Overcast,190,2013-11-09 22:51:00
6:51 PM,35.1,23.0,61,30.10,10.0,South,3.5,-,N/A,,Overcast,190,2013-11-09 23:51:00
7:51 PM,35.1,21.9,59,30.08,10.0,South,8.1,-,N/A,,Overcast,190,2013-11-10 00:51:00
8:51 PM,35.1,23.0,61,30.09,10.0,SSW,5.8,-,N/A,,Overcast,200,2013-11-10 01:51:00
9:51 PM,34.0,23.0,64,30.06,8.0,SSE,4.6,-,0.00,Snow,Light Snow,160,2013-11-10 02:51:00
10:51 PM,34.0,24.1,67,30.03,10.0,South,5.8,-,0.00,,Overcast,170,2013-11-10 03:51:00
11:51 PM,32.0,28.9,88,30.00,3.0,South,8.1,-,0.00,Snow,Light Snow,190,2013-11-10 04:51:00
11:58 PM,32.0,30.2,93,29.95,2.5,South,8.1,-,0.00,Snow,Light Snow,180,2013-11-10 04:58:00